When you browse on this site, cookies collect data to enhance your experience and personalize the content and advertising you see.
Visit our Privacy Policy to learn more. By continuing to use the site, you agree to this use of cookies and data.
  • In Hungary
  • List of Countries
  • For 7 days
  • Water Temperature
  • Satellite Maps
  • Weather Map
  • News
  • Weather Widgets
  • user-avatar
    Login

    Hourly Weather Puertollano

    Today, 24 January, Thursday

    Time Temperature Precipitation Wind Pressure Humidity
    00:00 +4°C° 0 mm 3 mps 699 mmHg 97%
    01:00 +4°C° 0 mm 3 mps 699 mmHg 97%
    02:00 +4°C° 0 mm 3 mps 699 mmHg 97%
    03:00 +4°C° 0 mm 3 mps 699 mmHg 97%
    04:00 +4°C° 0 mm 3 mps 699 mmHg 97%
    05:00 +4°C° 0 mm 3 mps 699 mmHg 97%
    06:00 +5°C° 0 mm 3 mps 699 mmHg 97%
    07:00 +5°C° 0 mm 3 mps 699 mmHg 96%
    08:00 +5°C° 0 mm 3 mps 699 mmHg 94%
    09:00 +7°C° 0 mm 3 mps 699 mmHg 93%
    10:00 +9°C° 0 mm 3 mps 700 mmHg 82%
    11:00 +11°C° 0 mm 3 mps 700 mmHg 72%
    12:00 +14°C° 0 mm 3 mps 701 mmHg 62%
    13:00 +14°C° 0 mm 3 mps 701 mmHg 60%
    14:00 +14°C° 0 mm 4 mps 701 mmHg 58%
    15:00 +15°C° 0 mm 4 mps 701 mmHg 55%
    16:00 +14°C° 0.1 mm 3 mps 701 mmHg 62%
    17:00 +13°C° 0.1 mm 2 mps 701 mmHg 69%
    18:00 +12°C° 0.1 mm 1 mps 701 mmHg 75%
    19:00 +11°C° 0 mm 1 mps 701 mmHg 78%
    20:00 +10°C° 0 mm 1 mps 702 mmHg 81%
    21:00 +9°C° 0 mm 1 mps 702 mmHg 84%
    22:00 +9°C° 0 mm 1 mps 703 mmHg 85%
    23:00 +8°C° 0 mm 1 mps 703 mmHg 85%

    Tomorrow, 25 January, Friday

    Time Temperature Precipitation Wind Pressure Humidity
    00:00 +8°C° 0 mm 1 mps 703 mmHg 86%
    01:00 +8°C° 0 mm 1 mps 703 mmHg 86%
    02:00 +7°C° 0 mm 1 mps 703 mmHg 85%
    03:00 +7°C° 0 mm 1 mps 704 mmHg 85%
    04:00 +7°C° 0 mm 1 mps 704 mmHg 86%
    05:00 +6°C° 0 mm 1 mps 704 mmHg 87%
    06:00 +6°C° 0 mm 1 mps 704 mmHg 89%
    07:00 +7°C° 0 mm 1 mps 704 mmHg 85%
    08:00 +8°C° 0 mm 1 mps 705 mmHg 82%
    09:00 +9°C° 0 mm 1 mps 705 mmHg 78%
    10:00 +10°C° 0 mm 2 mps 706 mmHg 70%
    11:00 +12°C° 0 mm 3 mps 706 mmHg 61%
    12:00 +14°C° 0 mm 5 mps 706 mmHg 52%
    13:00 +14°C° 0 mm 5 mps 706 mmHg 51%
    14:00 +14°C° 0 mm 4 mps 706 mmHg 51%
    15:00 +14°C° 0 mm 4 mps 706 mmHg 50%
    16:00 +12°C° 0 mm 3 mps 705 mmHg 56%
    17:00 +10°C° 0 mm 3 mps 705 mmHg 63%
    18:00 +9°C° 0 mm 2 mps 705 mmHg 69%
    19:00 +8°C° 0 mm 2 mps 706 mmHg 71%
    20:00 +7°C° 0 mm 2 mps 706 mmHg 73%
    21:00 +8°C° 0 mm 1 mps 707 mmHg 75%
    22:00 +7°C° 0 mm 1 mps 706 mmHg 76%
    23:00 +7°C° 0 mm 1 mps 706 mmHg 78%

    Day after tomorrow, 26 January, Saturday

    Time Temperature Precipitation Wind Pressure Humidity
    00:00 +6°C° 0 mm 1 mps 706 mmHg 79%
    01:00 +6°C° 0 mm 1 mps 706 mmHg 80%
    02:00 +6°C° 0 mm 1 mps 706 mmHg 80%
    03:00 +5°C° 0 mm 1 mps 706 mmHg 81%
    04:00 +5°C° 0 mm 1 mps 706 mmHg 83%
    05:00 +5°C° 0 mm 1 mps 706 mmHg 85%
    06:00 +5°C° 0 mm 1 mps 706 mmHg 86%
    07:00 +6°C° 0 mm 1 mps 706 mmHg 82%
    08:00 +7°C° 0 mm 1 mps 707 mmHg 79%
    09:00 +7°C° 0 mm 1 mps 707 mmHg 75%
    10:00 +9°C° 0 mm 1 mps 707 mmHg 66%
    11:00 +12°C° 0 mm 1 mps 707 mmHg 58%
    12:00 +14°C° 0 mm 2 mps 707 mmHg 49%
    13:00 +14°C° 0 mm 1 mps 707 mmHg 46%
    14:00 +15°C° 0 mm 1 mps 706 mmHg 44%
    15:00 +15°C° 0 mm 1 mps 706 mmHg 42%
    16:00 +12°C° 0 mm 0 mps 706 mmHg 49%
    17:00 +10°C° 0 mm 0 mps 705 mmHg 57%
    18:00 +8°C° 0 mm 0 mps 705 mmHg 64%
    19:00 +7°C° 0 mm 0 mps 705 mmHg 67%
    20:00 +8°C° 0 mm 1 mps 705 mmHg 69%
    21:00 +7°C° 0 mm 1 mps 705 mmHg 72%
    22:00 +7°C° 0 mm 1 mps 705 mmHg 74%
    23:00 +6°C° 0 mm 1 mps 705 mmHg 76%

    27 January, Sunday

    Time Temperature Precipitation Wind Pressure Humidity
    00:00 +6°C° 0 mm 1 mps 705 mmHg 78%
    01:00 +6°C° 0 mm 1 mps 704 mmHg 79%
    02:00 +6°C° 0 mm 1 mps 704 mmHg 80%
    03:00 +6°C° 0 mm 1 mps 703 mmHg 81%
    04:00 +5°C° 0 mm 1 mps 703 mmHg 81%
    05:00 +4°C° 0 mm 2 mps 703 mmHg 82%
    06:00 +4°C° 0 mm 2 mps 703 mmHg 83%
    07:00 +5°C° 0 mm 2 mps 703 mmHg 80%
    08:00 +6°C° 0 mm 2 mps 703 mmHg 78%
    09:00 +7°C° 0 mm 2 mps 704 mmHg 75%
    10:00 +8°C° 0 mm 3 mps 703 mmHg 67%
    11:00 +10°C° 0 mm 4 mps 703 mmHg 59%
    12:00 +12°C° 0 mm 5 mps 703 mmHg 51%
    13:00 +11°C° 0 mm 6 mps 703 mmHg 53%
    14:00 +11°C° 0 mm 6 mps 702 mmHg 55%
    15:00 +11°C° 0 mm 7 mps 701 mmHg 56%
    16:00 +9°C° 0 mm 6 mps 702 mmHg 62%
    17:00 +8°C° 0 mm 5 mps 702 mmHg 67%
    18:00 +6°C° 0 mm 4 mps 702 mmHg 72%
    19:00 +5°C° 0 mm 4 mps 702 mmHg 74%
    20:00 +4°C° 0 mm 3 mps 703 mmHg 76%
    21:00 +3°C° 0 mm 3 mps 703 mmHg 78%
    22:00 +2°C° 0 mm 3 mps 703 mmHg 81%
    23:00 +2°C° 0 mm 2 mps 704 mmHg 83%

    28 January, Monday

    Time Temperature Precipitation Wind Pressure Humidity
    00:00 +2°C° 0 mm 2 mps 704 mmHg 86%
    01:00 +1°C° 0 mm 2 mps 704 mmHg 87%
    02:00 +1°C° 0 mm 2 mps 704 mmHg 88%
    03:00 +1°C° 0 mm 2 mps 704 mmHg 89%
    04:00 -1°C° 0 mm 2 mps 704 mmHg 91%
    05:00 -1°C° 0 mm 2 mps 704 mmHg 92%
    06:00 -1°C° 0 mm 2 mps 704 mmHg 93%
    07:00 0°C° 0 mm 3 mps 705 mmHg 91%
    08:00 +1°C° 0 mm 3 mps 705 mmHg 88%
    09:00 +1°C° 0 mm 4 mps 705 mmHg 85%
    10:00 +4°C° 0 mm 4 mps 706 mmHg 80%
    11:00 +6°C° 0 mm 5 mps 706 mmHg 74%
    12:00 +8°C° 0 mm 5 mps 706 mmHg 68%
    13:00 +8°C° 0 mm 5 mps 706 mmHg 68%
    14:00 +8°C° 0 mm 4 mps 706 mmHg 67%
    15:00 +10°C° 0 mm 4 mps 705 mmHg 66%
    16:00 +8°C° 0 mm 3 mps 705 mmHg 73%
    17:00 +7°C° 0 mm 2 mps 705 mmHg 79%
    18:00 +7°C° 0 mm 1 mps 705 mmHg 85%
    19:00 +6°C° 0 mm 1 mps 706 mmHg 87%
    20:00 +6°C° 0 mm 1 mps 706 mmHg 89%
    21:00 +5°C° 0 mm 1 mps 706 mmHg 90%
    22:00 +5°C° 0 mm 1 mps 706 mmHg 91%
    23:00 +4°C° 0 mm 1 mps 706 mmHg 92%

    29 January, Tuesday

    Time Temperature Precipitation Wind Pressure Humidity
    00:00 +4°C° 0 mm 1 mps 706 mmHg 92%
    01:00 +2°C° 0 mm 0 mps 706 mmHg 92%
    02:00 +2°C° 0 mm 0 mps 706 mmHg 93%
    03:00 +2°C° 0 mm 0 mps 706 mmHg 93%
    04:00 +2°C° 0 mm 0 mps 706 mmHg 93%
    05:00 +1°C° 0 mm 0 mps 706 mmHg 93%
    06:00 +1°C° 0 mm 0 mps 706 mmHg 94%
    07:00 +2°C° 0 mm 0 mps 706 mmHg 91%
    08:00 +3°C° 0 mm 0 mps 707 mmHg 88%
    09:00 +4°C° 0 mm 0 mps 708 mmHg 85%
    10:00 +6°C° 0 mm 0 mps 708 mmHg 77%
    11:00 +8°C° 0 mm 0 mps 708 mmHg 69%
    12:00 +11°C° 0 mm 1 mps 708 mmHg 61%
    13:00 +11°C° 0 mm 1 mps 708 mmHg 58%
    14:00 +12°C° 0 mm 1 mps 707 mmHg 56%
    15:00 +12°C° 0 mm 1 mps 707 mmHg 53%
    16:00 +10°C° 0 mm 1 mps 707 mmHg 62%
    17:00 +8°C° 0 mm 2 mps 707 mmHg 71%
    18:00 +6°C° 0 mm 2 mps 707 mmHg 80%
    19:00 +6°C° 0 mm 1 mps 707 mmHg 83%
    20:00 +5°C° 0 mm 1 mps 708 mmHg 85%
    21:00 +5°C° 0 mm 1 mps 708 mmHg 88%
    22:00 +4°C° 0 mm 1 mps 708 mmHg 88%
    23:00 +4°C° 0 mm 1 mps 708 mmHg 88%
    Show more